Nassogne, Belgium
Current Conditions -  °F | °C
As of 1:55 AM on Tuesday 25 Nov 2014 (Local Time) from EBFS Reporting Station
Broken Clouds Broken Clouds  
Wind Chill: 36°   Ceiling: 22000
Heat Index: 36°   Visibility: 6mi
Dew Point: 34°   Wind: 3mph
Humidity: 93%   Direction: 50°NE
Pressure: 30.27"   Gusts: NA
Location:  50.13°N, 5.34°E
Report Text: EBFS 250055Z 05003KT 9999 BKN220 02/01 Q1025 BLU
Loading
Personal Weather Stations






























Interactive Weather Map New forecast layout! Learn more

10-Day Weather Forecast

Advertisements
Track Severe Weather on mobile